Roanoke, VA

9:59 PM EDT on October 13, 2019 (GMT -0400)
Roanoke Regional-Woodrum

Weather History for KROA - August, 2019

Change the Weather History Date:

Friday, August 30, 2019

  Actual Average Record
Temperature  
Mean Temperature 72 °F 73 °F  
Max Temperature 88 °F 84 °F 102 °F (1932)
Min Temperature 56 °F 63 °F 42 °F (1986)
Degree Days  
Heating Degree Days 0 0  
Month to date heating degree days 0 0  
Since 1 June heating degree days 0 11  
Since 1 July heating degree days 0 0  
Cooling Degree Days 7 9  
Month to date cooling degree days 369 314  
Year to date cooling degree days 1352 1037  
Since 1 June cooling degree days 1073 921  
Growing Degree Days 22 (Base 50)    
Moisture  
Dew Point 57 °F    
Average Humidity 61    
Maximum Humidity 86    
Minimum Humidity 36    
Precipitation  
Precipitation 0.00 in 0.12 in 2.56 in (1940)
Month to date precipitation 3.13 3.44  
Year to date precipitation 30.70 28.01  
Snow  
Snow 0.00 in - - ()
Month to date snowfall 0.0  
Since 1 June snowfall T  
Since 1 July snowfall T  
Snow Depth 0.00 in    
Sea Level Pressure  
Sea Level Pressure 30.12 in    
Wind  
Wind Speed 4 mph (South)    
Max Wind Speed 13 mph    
Max Gust Speed 15 mph    
Visibility 10 miles    
Events      
T = Trace of Precipitation, MM = Missing Value Source: NWS Daily Summary

Daily Weather History Graph

Daily Weather History Graph

Search for Another Location

Airport or City:

Astronomy

Aug. 30, 2019 Rise Set
Actual Time 6:48 AM EDT 7:51 PM EDT
Civil Twilight 6:21 AM EDT 8:18 PM EDT
Nautical Twilight 5:49 AM EDT 8:50 PM EDT
Astronomical Twilight 5:16 AM EDT 9:23 PM EDT
Moon 6:48 AM EDT (8/30) 8:27 PM EDT (8/30)
Length of Visible Light 13h 56m
Length of Day
13h 03m
New Moon, 0% of the Moon is Illuminated
Aug 30
New Moon
Sep 5
First Quarter
Sep 14
Full
Sep 21
Last Quarter
Sep 28
New

Hourly Weather History & Observations

Time (EDT) Temp. Heat Index Dew Point Humidity Pressure Visibility Wind Dir Wind Speed Gust Speed Precip Events Conditions
12:54 AM 60.1 °F - 53.1 °F 78% 30.11 in 10.0 mi Variable 3.5 mph - N/A   Clear
1:54 AM 59.0 °F - 53.1 °F 81% 30.11 in 10.0 mi Calm Calm - N/A   Clear
2:54 AM 60.1 °F - 53.1 °F 78% 30.10 in 10.0 mi Calm Calm - N/A   Clear
3:54 AM 60.1 °F - 53.1 °F 78% 30.10 in 10.0 mi NNW 3.5 mph - N/A   Clear
4:54 AM 59.0 °F - 52.0 °F 78% 30.11 in 10.0 mi NNW 4.6 mph - N/A   Clear
5:54 AM 55.9 °F - 52.0 °F 87% 30.12 in 10.0 mi NNW 4.6 mph - N/A   Clear
6:54 AM 57.0 °F - 52.0 °F 83% 30.12 in 10.0 mi Calm Calm - N/A   Clear
7:54 AM 62.1 °F - 53.1 °F 72% 30.14 in 10.0 mi Calm Calm - N/A   Clear
8:54 AM 66.9 °F - 54.0 °F 63% 30.15 in 10.0 mi West 4.6 mph - N/A   Clear
9:54 AM 71.1 °F - 55.0 °F 57% 30.15 in 10.0 mi West 12.7 mph - N/A   Clear
10:54 AM 77.0 °F - 55.9 °F 48% 30.16 in 10.0 mi West 9.2 mph - N/A   Clear
11:54 AM 79.0 °F - 57.0 °F 47% 30.15 in 10.0 mi Variable 3.5 mph - N/A   Clear
12:54 PM 82.9 °F 82.6 °F 57.9 °F 42% 30.14 in 10.0 mi SE 5.8 mph - N/A   Clear
1:54 PM 84.0 °F 83.5 °F 57.9 °F 41% 30.12 in 10.0 mi South 8.1 mph - N/A   Clear
2:54 PM 86.0 °F 85.4 °F 59.0 °F 40% 30.10 in 10.0 mi SE 5.8 mph - N/A   Clear
3:54 PM 88.0 °F 86.9 °F 57.9 °F 36% 30.08 in 10.0 mi Variable 3.5 mph - N/A   Clear
4:54 PM 88.0 °F 87.6 °F 60.1 °F 39% 30.08 in 10.0 mi ESE 5.8 mph - N/A   Clear
5:54 PM 86.0 °F 86.1 °F 61.0 °F 43% 30.08 in 10.0 mi ESE 10.4 mph - N/A   Clear
6:54 PM 82.9 °F 83.7 °F 62.1 °F 49% 30.09 in 10.0 mi SSE 6.9 mph - N/A   Clear
7:54 PM 81.0 °F 81.6 °F 60.1 °F 49% 30.10 in 10.0 mi SSE 5.8 mph - N/A   Clear
8:54 PM 79.0 °F - 60.1 °F 52% 30.13 in 10.0 mi East 3.5 mph - N/A   Clear
9:54 PM 77.0 °F - 62.1 °F 60% 30.15 in 10.0 mi Calm Calm - N/A   Clear
10:54 PM 73.0 °F - 62.1 °F 68% 30.16 in 10.0 mi Calm Calm - N/A   Clear
11:54 PM 71.1 °F - 62.1 °F 73% 30.17 in 10.0 mi Calm Calm - N/A   Clear